Flag for U.S.A. Weather past 2 weeks in Alpena, Michigan, U.S.A.

Now
-4 °F

Light snow. Ice fog.


Feels Like: -12 °F
Forecast: 6 / 21 °F
Wind: 3 mph from West

Location: Alpena County Regional Airport

Current Time: Jan 26, 2015 at 6:06:17 AM

Latest Report: Jan 26, 2015 at 5:01 AM


Visibility: 2 mi

Pressure: 30.02 "Hg

Humidity: 83%

Dew point: -8 °F

Location of AlpenaLocation

Historic Weather in Alpena — Graph

°F

Alpena temperature yesterday

Maximum temperature yesterday: 16 °F (at 12:54 AM)
Minimum temperature yesterday: -2 °F (at 11:54 PM)
Average temperature yesterday: 10 °F

Past Weeks' High & Low Weather Summary

 TemperatureHumidityPressure
High38 °F (Jan 17, 9:54 PM)97% (Jan 18, 5:54 AM)30.85 "Hg (Jan 18, 5:54 AM)
Low-14 °F (Jan 14, 4:54 AM)51% (Jan 22, 3:54 PM)29.46 "Hg (Jan 18, 12:54 AM)
Average17 °F77%30.09 "Hg
* Reported Jan 11 4:54 AM — Jan 26 4:54 AM, Alpena, Weather by CustomWeather, © 2014

Note: Actual official high and low records may vary slightly from our data, if they occured in-between our weather recording intervals... More about our weather records

Advertising

Alpena weather history for previous 24 hours

 ConditionsComfort  
Time TempWeatherWind HumidityBarometerVisibility
4:54 AM
Jan 26
-5 °FLight snow. Ice fog.No wind83%30.07 "Hg5 mi
3:54 AM-4 °FPassing clouds.No wind79%30.08 "Hg10 mi
2:54 AM-5 °FPassing clouds.No wind83%30.09 "Hg10 mi
1:54 AM-4 °FClear.No wind79%30.09 "Hg10 mi
12:54 AM-3 °FPassing clouds.No wind78%30.11 "Hg10 mi
11:54 PM
Jan 25
-2 °FClear.No wind78%30.13 "Hg10 mi
10:54 PM0 °FClear.No wind79%30.14 "Hg10 mi
9:54 PM0 °FClear.3 mph83%30.16 "Hg10 mi
8:54 PM2 °FClear.No wind83%30.15 "Hg10 mi
7:54 PM7 °FClear.No wind76%30.15 "Hg10 mi
6:54 PM8 °FClear.5 mph76%30.14 "Hg10 mi
5:54 PM10 °FClear.7 mph76%30.11 "Hg10 mi
4:54 PM13 °FSunny.6 mph70%30.10 "Hg10 mi
3:54 PM15 °FPassing clouds.8 mph64%30.09 "Hg10 mi
2:54 PM16 °FSunny.6 mph59%30.09 "Hg10 mi
1:54 PM15 °FScattered clouds.7 mph64%30.08 "Hg10 mi
1:01 PM15 °FScattered clouds.5 mph64%30.04 "Hg10 mi
11:54 AM15 °FOvercast.6 mph67%30.07 "Hg10 mi
10:54 AM13 °FPartly sunny.15 mph74%30.05 "Hg10 mi
9:54 AM12 °FPassing clouds.13 mph70%30.03 "Hg10 mi
8:54 AM7 °FSunny.5 mph79%30.02 "Hg10 mi
7:54 AM7 °FPassing clouds.6 mph79%30.00 "Hg10 mi
6:54 AM7 °FPassing clouds.5 mph79%29.98 "Hg10 mi
Weather by CustomWeather, © 2014

See weather overviewHow to use our weather pages